Weather History for Superior, WI

Change the Weather History Date:

Monday, February 4, 2013

  Actual Average Record
Temperature  
Mean Temperature -1 °F -  
Max Temperature 11 °F 23 °F 10 °F (2014)
Min Temperature -13 °F 1 °F -8 °F (2014)
Degree Days  
Heating Degree Days 66    
Moisture  
Dew Point -9 °F    
Average Humidity 62    
Maximum Humidity 85    
Minimum Humidity 42    
Precipitation  
Precipitation 0.00 in - - ()
Sea Level Pressure  
Sea Level Pressure 29.96 in    
Wind  
Wind Speed 4 mph (WSW)    
Max Wind Speed 10 mph    
Max Gust Speed -    
Visibility 9 miles    
Events Snow    
Averages and records for this station are not official NWS values.
T = Trace of Precipitation, MM = Missing Value Source: NWS Daily Summary

Daily Weather History Graph

Daily Weather History Graph

Search for Another Location

Airport:

Trip Planner

Search our weather history database for the weather conditions in past years. The results will help you decide how hot, cold, wet, or windy it might be!

Date:

Astronomy

Feb. 04, 2013 Rise Set
Actual Time 7:28 AM CST 5:17 PM CST
Civil Twilight 6:56 AM CST 5:49 PM CST
Nautical Twilight 6:20 AM CST 6:25 PM CST
Astronomical Twilight 5:44 AM CST 7:00 PM CST
Moon 2:09 AM CST (2/4) 11:35 AM CST (2/4)
Length of Visible Light 10h 53m
Length of Day
9h 48m
Last Quarter, 37% of the Moon is Illuminated
Feb 4
Last Quarter
Feb 10
New
Feb 17
First Quarter
Feb 25
Full
Mar 4
Last Quarter

Hourly Weather History & Observations

Time (CST) Temp. Windchill Dew Point Humidity Pressure Visibility Wind Dir Wind Speed Gust Speed Precip Events Conditions
12:15 AM 0.7 °F -13.3 °F -8.7 °F 65% 30.03 in 10.0 mi NNW 8.1 mph - N/A   Clear
12:35 AM 1.2 °F -6.4 °F -8.1 °F 65% 30.03 in 10.0 mi NNW 3.5 mph - N/A   Clear
12:55 AM -3.3 °F - -8.9 °F 77% 30.03 in 10.0 mi Calm Calm - N/A   Clear
1:15 AM -2.0 °F - -8.7 °F 73% 30.03 in 10.0 mi Calm Calm - N/A   Clear
1:35 AM -4.9 °F -15.6 °F -10.3 °F 78% 30.03 in 10.0 mi NW 4.6 mph - N/A   Clear
1:55 AM -4.4 °F - -11.2 °F 72% 30.04 in 10.0 mi Calm Calm - N/A   Clear
2:15 AM -6.9 °F - -13.0 °F 75% 30.05 in 10.0 mi Calm Calm - N/A   Clear
2:35 AM -8.9 °F - -13.9 °F 79% 30.05 in 10.0 mi Calm Calm - N/A   Clear
2:55 AM -8.5 °F - -14.4 °F 75% 30.04 in 10.0 mi Calm Calm - N/A   Clear
3:15 AM -10.3 °F -19.6 °F -15.5 °F 78% 30.04 in 10.0 mi WNW 3.5 mph - N/A   Clear
4:55 AM -9.8 °F -19.0 °F -15.0 °F 78% 30.05 in 10.0 mi WNW 3.5 mph - N/A   Clear
5:15 AM -9.9 °F -21.5 °F -15.2 °F 78% 30.05 in 10.0 mi WNW 4.6 mph - N/A   Clear
5:35 AM -11.0 °F -20.4 °F -16.2 °F 78% 30.05 in 10.0 mi WNW 3.5 mph - N/A   Clear
5:55 AM -11.2 °F -20.6 °F -15.9 °F 80% 30.05 in 10.0 mi WNW 3.5 mph - N/A   Clear
6:15 AM -11.4 °F -25.1 °F -16.4 °F 78% 30.06 in 10.0 mi WNW 5.8 mph - N/A   Clear
6:55 AM -11.0 °F -26.2 °F -15.5 °F 80% 30.06 in 10.0 mi WNW 6.9 mph - N/A   Clear
7:15 AM -11.0 °F -20.4 °F -16.1 °F 78% 30.06 in 10.0 mi WNW 3.5 mph - N/A   Clear
7:35 AM -13.0 °F -27.0 °F -17.9 °F 79% 30.06 in 10.0 mi WNW 5.8 mph - N/A   Clear
7:55 AM -13.0 °F -27.0 °F -18.0 °F 78% 30.06 in 10.0 mi WNW 5.8 mph - N/A   Clear
8:15 AM -11.4 °F -20.8 °F -16.6 °F 78% 30.06 in 10.0 mi West 3.5 mph - N/A   Clear
8:35 AM -9.6 °F - -15.0 °F 77% 30.06 in 10.0 mi Calm Calm - N/A   Clear
8:55 AM -7.1 °F -15.9 °F -13.2 °F 75% 30.07 in 10.0 mi WNW 3.5 mph - N/A   Clear
9:15 AM -4.4 °F -15.0 °F -11.6 °F 71% 30.06 in 10.0 mi West 4.6 mph - N/A   Clear
9:35 AM -2.7 °F -11.0 °F -10.7 °F 69% 30.07 in 10.0 mi West 3.5 mph - N/A   Clear
9:55 AM -1.7 °F - -10.7 °F 66% 30.07 in 10.0 mi Calm Calm - N/A   Clear
10:15 AM 0.3 °F -9.5 °F -10.5 °F 60% 30.07 in 10.0 mi West 4.6 mph - N/A   Clear
10:35 AM 1.4 °F -8.3 °F -11.0 °F 56% 30.07 in 10.0 mi West 4.6 mph - N/A   Clear
10:55 AM 2.3 °F -5.2 °F -11.2 °F 53% 30.07 in 10.0 mi West 3.5 mph - N/A   Clear
11:15 AM 3.6 °F -5.7 °F -10.7 °F 52% 30.06 in 10.0 mi WSW 4.6 mph - N/A   Clear
11:35 AM 4.8 °F - -11.2 °F 48% 30.04 in 10.0 mi Calm Calm - N/A   Clear
11:55 AM 5.5 °F - -11.7 °F 45% 30.03 in 10.0 mi Calm Calm - N/A   Clear
12:15 PM 6.8 °F -3.5 °F -10.3 °F 46% 30.02 in 10.0 mi SW 5.8 mph - N/A   Clear
12:35 PM 7.9 °F -3.5 °F -9.8 °F 45% 30.01 in 10.0 mi West 6.9 mph - N/A   Clear
12:55 PM 8.8 °F -1.1 °F -9.4 °F 44% 30.00 in 10.0 mi WSW 5.8 mph - N/A   Clear
1:15 PM 9.1 °F -0.7 °F -9.6 °F 43% 29.99 in 10.0 mi WSW 5.8 mph - N/A   Scattered Clouds
1:35 PM 9.3 °F -3.8 °F -8.3 °F 45% 29.99 in 10.0 mi West 9.2 mph - N/A   Overcast
1:55 PM 10.4 °F -0.4 °F -8.1 °F 43% 29.97 in 10.0 mi West 6.9 mph - N/A   Overcast
2:15 PM 10.9 °F 0.2 °F -8.3 °F 42% 29.97 in 10.0 mi WNW 6.9 mph - N/A   Overcast
2:35 PM 11.5 °F -1.1 °F -7.8 °F 42% 29.95 in 10.0 mi West 9.2 mph - N/A   Overcast
2:55 PM 11.3 °F 0.7 °F -7.6 °F 43% 29.96 in 10.0 mi West 6.9 mph - N/A   Overcast
3:15 PM 11.3 °F -1.3 °F -7.8 °F 42% 29.96 in 10.0 mi West 9.2 mph - N/A   Overcast
3:35 PM 11.3 °F -2.2 °F -7.4 °F 43% 29.96 in 10.0 mi West 10.4 mph - N/A   Overcast
3:55 PM 11.1 °F -1.6 °F -6.7 °F 45% 29.95 in 10.0 mi West 9.2 mph - N/A   Overcast
4:15 PM 10.8 °F -1.1 °F -7.6 °F 44% 29.94 in 10.0 mi WSW 8.1 mph - N/A   Overcast
4:35 PM 10.0 °F -2.9 °F -7.6 °F 45% 29.93 in 10.0 mi West 9.2 mph - N/A   Scattered Clouds
4:55 PM 9.5 °F -2.6 °F -7.8 °F 46% 29.91 in 10.0 mi West 8.1 mph - N/A   Clear
5:15 PM 9.0 °F 0.6 °F -7.8 °F 47% 29.91 in 10.0 mi WSW 4.6 mph - N/A   Clear
5:35 PM 7.7 °F 1.0 °F -7.6 °F 50% 29.90 in 10.0 mi SW 3.5 mph - N/A   Clear
5:55 PM 6.4 °F -0.5 °F -6.9 °F 54% 29.89 in 10.0 mi SW 3.5 mph - N/A   Clear
6:15 PM 7.3 °F 0.5 °F -7.6 °F 51% 29.88 in 10.0 mi SW 3.5 mph - N/A   Clear
6:35 PM 4.8 °F - -7.6 °F 57% 29.87 in 10.0 mi Calm Calm - N/A   Clear
6:55 PM 4.3 °F -2.9 °F -7.8 °F 57% 29.87 in 10.0 mi South 3.5 mph - N/A   Clear
7:15 PM 2.5 °F - -7.4 °F 63% 29.87 in 10.0 mi Calm Calm - N/A   Clear
7:35 PM 1.6 °F -6.0 °F -7.6 °F 65% 29.87 in 10.0 mi SSW 3.5 mph - N/A   Clear
7:55 PM 2.3 °F -8.8 °F -7.1 °F 65% 29.86 in 10.0 mi SSW 5.8 mph - N/A   Mostly Cloudy
8:15 PM 8.4 °F -3.9 °F -5.3 °F 54% 29.85 in 10.0 mi SW 8.1 mph - N/A   Overcast
8:55 PM 9.3 °F -1.7 °F -4.9 °F 53% 29.82 in 10.0 mi SW 6.9 mph - N/A   Overcast
9:15 PM 9.3 °F -1.7 °F -4.2 °F 54% 29.81 in 10.0 mi SSW 6.9 mph - N/A   Overcast
9:35 PM 9.7 °F -1.3 °F -3.3 °F 56% 29.80 in 10.0 mi SSW 6.9 mph - N/A   Overcast
9:55 PM 10.2 °F -0.6 °F -2.7 °F 56% 29.80 in 10.0 mi SW 6.9 mph - N/A   Overcast
10:15 PM 10.4 °F -1.5 °F -2.9 °F 55% 29.79 in 10.0 mi SW 8.1 mph - N/A   Overcast
10:35 PM 10.2 °F -1.7 °F -0.0 °F 63% 29.79 in 4.0 mi SW 8.1 mph - N/A Snow Light Snow
10:55 PM 9.3 °F -2.8 °F 4.1 °F 79% 29.77 in 1.5 mi SSW 8.1 mph - N/A Snow Light Snow
11:15 PM 9.5 °F -3.5 °F 5.0 °F 82% 29.76 in 2.0 mi SW 9.2 mph - N/A Snow Light Snow
11:35 PM 9.5 °F -2.6 °F 5.9 °F 85% 29.74 in 1.8 mi SSW 8.1 mph - N/A Snow Light Snow
11:55 PM 9.9 °F -2.2 °F 6.3 °F 85% 29.72 in 1.8 mi SSW 8.1 mph - N/A Snow Light Snow